Location: Doverdale
(52.2833°N, 2.2000°W)
Time: 03:29:14
(UTC+00:00)

NOSS 3-4 (C) - Pass Details

Date: 29 October 2020
Orbit: 886 x 1326 km, 63.4° (Epoch: 06 November)

Event Time Altitude Azimuth Distance (km) Brightness Sun altitude
Rises 19:41:26 0° 313° (NW) 3,790 7.5 -27.4°
Reaches altitude 10° 19:43:58 10° 311° (NW) 2,893 6.7 -27.8°
Maximum altitude 19:50:45 63° 232° (SW) 1,274 4.1 -28.8°
Enters shadow 19:53:11 43° 173° (S) 1,609 4.4 -29.2°
